Location: Camp Creek
(33.9000°N, 111.8167°W)
Time: 20:37:11
(UTC-07:00)

Cosmos 1656 - Visible Passes

Search period start: 01 July 2015 00:00
Search period end: 11 July 2015 00:00
Orbit: 800 x 848 km, 71.1° (Epoch: 01 July)

Date Brightness Start Highest point End Pass type
(mag) Time Alt. Az. Time Alt. Az. Time Alt. Az.
01 Jul 5.2 20:24:02 10° NNE 20:27:54 20° ENE 20:31:59 10° ESE visible
01 Jul 4.3 22:06:37 10° NW 22:11:50 46° WSW 22:13:26 36° SSW visible
02 Jul 4.1 21:46:09 10° NNW 21:51:29 56° WSW 21:53:46 33° SSW visible
03 Jul 3.8 21:25:42 10° NNW 21:31:07 67° WSW 21:34:10 27° S visible
04 Jul 3.7 21:05:17 10° NNW 21:10:45 80° WSW 21:14:36 20° SSE visible
05 Jul 3.6 20:44:53 10° NNW 20:50:23 86° ENE 20:55:06 15° SSE visible
06 Jul 3.7 20:24:31 10° NNW 20:30:00 73° ENE 20:35:32 10° SSE visible
06 Jul 6.2 22:11:30 10° W 22:13:08 11° W 22:14:21 10° WSW visible
07 Jul 3.8 20:04:11 10° NNW 20:09:37 61° ENE 20:15:05 10° SSE visible
07 Jul 6.1 21:50:01 10° WNW 21:52:48 14° W 21:55:16 10° SW visible
08 Jul 6.0 21:28:59 10° WNW 21:32:29 17° WSW 21:35:43 10° SW visible
09 Jul 5.9 21:08:09 10° NW 21:12:09 20° WSW 21:15:58 10° SW visible
10 Jul 5.7 20:47:26 10° NW 20:51:49 24° WSW 20:56:05 10° SSW visible
